Flag for U.S.A. Weather past 2 weeks in Hialeah, Florida, U.S.A.

Now
77 °F

Sunny.


Feels Like: 79 °F
Forecast: 71 / 87 °F
Wind: 6 mph from Northwest

Location: Opa Locka Airport


UV Index: 5 (Moderate)

Visibility: 10 mi


Pressure: 29.97 "Hg

Humidity: 79%

Dew point: 70 °F

Location of HialeahLocation

Historic Weather in Hialeah

°F

Hialeah temperature yesterday

Maximum temperature yesterday: 84 °F (at 2:53 PM)
Minimum temperature yesterday: 73 °F (at 12:53 AM)
Average temperature yesterday: 78 °F

Past Weeks' High & Low Weather Summary

 TemperatureHumidityPressure
High91 °F (Apr 8, 2:53 PM)100% (Apr 19, 8:53 AM)30.27 "Hg (Apr 19, 8:53 AM)
Low63 °F (Apr 10, 5:53 AM)33% (Apr 10, 11:53 AM)29.78 "Hg (Apr 8, 4:53 PM)
Average77 °F69%30.03 "Hg
* Reported Apr 4 9:53 AM — Apr 19 9:53 AM, Hialeah, Weather by CustomWeather, © 2014

Note: Actual official high and low records may vary slightly from our data, if they occured in-between our weather recording intervals... More about our weather records

Advertising

Historic Weather Conditions — Data for Previous 24 hours

 ConditionsComfort  
Time TempWeatherWind HumidityBarometerVisibility
9:53 AM
Apr 19
77 °FSunny.6 mph79%29.97 "Hg10 mi
9:02 AM73 °FScattered clouds.7 mph97%29.97 "Hg10 mi
8:53 AM71 °FLight rain. Broken clouds.3 mph100%29.98 "Hg10 mi
8:00 AM71 °FLight rain. Mostly cloudy.5 mph96%29.99 "Hg10 mi
6:53 AM73 °FThundershowers. Overcast.9 mph94%29.95 "Hg10 mi
5:53 AM76 °FThundershowers. Overcast.10 mph91%29.93 "Hg8 mi
4:53 AM78 °FPassing clouds.9 mph82%29.92 "Hg10 mi
3:53 AM78 °FPassing clouds.9 mph82%29.91 "Hg10 mi
2:53 AM77 °FPassing clouds.8 mph82%29.93 "Hg10 mi
1:53 AM78 °FClear.12 mph79%29.96 "Hg10 mi
12:53 AM78 °FPassing clouds.15 mph79%29.97 "Hg10 mi
11:53 PM
Apr 18
78 °FPassing clouds.14 mph79%29.98 "Hg10 mi
10:53 PM77 °FClear.10 mph79%29.98 "Hg10 mi
9:53 PM78 °FClear.10 mph76%29.99 "Hg10 mi
8:53 PM78 °FClear.12 mph76%29.98 "Hg10 mi
7:53 PM79 °FSunny.12 mph74%29.96 "Hg10 mi
6:53 PM81 °FSunny.18 mph67%29.96 "Hg10 mi
5:53 PM83 °FSunny.17 mph61%29.97 "Hg10 mi
4:53 PM82 °FBroken clouds.16 mph65%29.99 "Hg10 mi
3:53 PM80 °FBroken clouds.14 mph64%30.00 "Hg10 mi
2:53 PM84 °FPartly sunny.15 mph61%30.02 "Hg10 mi
1:53 PM83 °FCloudy.17 mph63%30.03 "Hg10 mi
12:53 PM81 °FCloudy.16 mph65%30.05 "Hg10 mi
11:53 AM81 °FScattered clouds.20 mph62%30.06 "Hg10 mi
Weather by CustomWeather, © 2014

See weather overview